Location: NCO
(38.4404°N, 77.1340°W)
Time: 04:34:44
(UTC-05:00)

Envisat - Visible Passes

Search period start: 19 January 2018 00:00
Search period end: 29 January 2018 00:00
Orbit: 764 x 766 km, 98.2° (Epoch: 18 January)

Date Brightness Start Highest point End Pass type
(mag) Time Alt. Az. Time Alt. Az. Time Alt. Az.
19 Jan 4.9 19:25:58 17° N 19:25:58 17° N 19:27:07 10° N visible
20 Jan 4.8 18:48:35 15° NNE 18:48:35 15° NNE 18:49:41 10° NNE visible
20 Jan 5.6 20:28:45 13° NNW 20:28:45 13° NNW 20:29:17 10° NNW visible
21 Jan 4.9 19:51:21 20° NNW 19:51:21 20° NNW 19:52:50 10° NNW visible
22 Jan 4.5 19:13:56 22° NNE 19:13:56 22° NNE 19:15:51 10° N visible
22 Jan 5.9 20:54:08 10° NW 20:54:08 10° NW 20:54:11 10° NW visible
23 Jan 4.6 18:36:31 16° NE 18:36:31 16° NE 18:38:10 10° NNE visible
23 Jan 5.0 20:16:42 20° NNW 20:16:42 20° NNW 20:18:18 10° NNW visible
24 Jan 4.3 19:39:17 28° N 19:39:17 28° N 19:41:41 10° N visible
25 Jan 4.2 19:01:50 25° NE 19:01:50 25° NE 19:04:32 10° N visible
25 Jan 5.4 20:42:01 17° NW 20:42:01 17° NW 20:43:25 10° NW visible
26 Jan 4.6 18:24:23 14° NE 18:24:23 14° NE 18:26:28 10° NNE visible
26 Jan 4.4 20:04:34 31° NNW 20:04:34 31° NNW 20:07:16 10° NNW visible
27 Jan 3.7 19:27:07 39° NNE 19:27:07 39° NNE 19:30:30 10° N visible
27 Jan 5.9 21:07:18 12° WNW 21:07:18 12° WNW 21:07:53 10° NW visible
28 Jan 4.0 18:49:39 24° NE 18:49:39 24° NE 18:53:09 10° NNE visible
28 Jan 4.8 20:29:51 26° NW 20:29:51 26° NW 20:32:32 10° NNW visible
